TimePST,TemperatureF,Dew PointF,Humidity,Sea Level PressureIn,VisibilityMPH,Wind Direction,Wind SpeedMPH,Gust SpeedMPH,PrecipitationIn,Events,Conditions,WindDirDegrees,DateUTC
12:53 AM,28.9,21.0,72,30.40,10.0,North,8.1,-,N/A,,Clear,350,2013-02-26 08:53:00
1:53 AM,27.0,19.9,75,30.41,10.0,Calm,Calm,-,N/A,,Clear,0,2013-02-26 09:53:00
2:53 AM,27.0,19.9,75,30.40,10.0,Calm,Calm,-,N/A,,Clear,0,2013-02-26 10:53:00
3:53 AM,23.0,18.0,81,30.41,10.0,Calm,Calm,-,N/A,,Clear,0,2013-02-26 11:53:00
4:53 AM,21.0,17.1,85,30.43,10.0,East,4.6,-,N/A,,Clear,100,2013-02-26 12:53:00
5:53 AM,21.0,16.0,81,30.45,10.0,East,5.8,-,N/A,,Clear,100,2013-02-26 13:53:00
6:53 AM,19.0,16.0,88,30.45,10.0,North,4.6,-,N/A,,Clear,350,2013-02-26 14:53:00
7:53 AM,21.0,17.1,85,30.45,10.0,Calm,Calm,-,N/A,,Clear,0,2013-02-26 15:53:00
8:53 AM,30.9,21.9,69,30.46,10.0,Calm,Calm,-,N/A,,Clear,0,2013-02-26 16:53:00
9:53 AM,36.0,23.0,59,30.45,10.0,Variable,4.6,-,N/A,,Clear,0,2013-02-26 17:53:00
10:53 AM,39.0,21.9,50,30.43,10.0,Calm,Calm,-,N/A,,Clear,0,2013-02-26 18:53:00
11:53 AM,43.0,21.9,43,30.39,10.0,Calm,Calm,-,N/A,,Clear,0,2013-02-26 19:53:00
12:53 PM,45.0,19.9,37,30.36,10.0,South,3.5,-,N/A,,Clear,190,2013-02-26 20:53:00
1:53 PM,48.0,19.0,32,30.32,10.0,SE,4.6,-,N/A,,Clear,140,2013-02-26 21:53:00
2:53 PM,50.0,15.1,25,30.30,10.0,Calm,Calm,-,N/A,,Clear,0,2013-02-26 22:53:00
3:53 PM,48.9,18.0,29,30.30,10.0,SW,3.5,-,N/A,,Clear,220,2013-02-26 23:53:00
4:53 PM,50.0,18.0,28,30.30,10.0,Calm,Calm,-,N/A,,Clear,0,2013-02-27 00:53:00
5:53 PM,44.1,21.9,42,30.31,10.0,WSW,5.8,-,N/A,,Clear,250,2013-02-27 01:53:00
6:53 PM,36.0,19.9,52,30.34,10.0,SE,3.5,-,N/A,,Clear,130,2013-02-27 02:53:00
7:53 PM,36.0,21.0,55,30.35,10.0,Calm,Calm,-,N/A,,Clear,0,2013-02-27 03:53:00
8:53 PM,36.0,23.0,59,30.34,10.0,Calm,Calm,-,N/A,,Partly Cloudy,0,2013-02-27 04:53:00
9:53 PM,30.0,19.9,66,30.36,10.0,Calm,Calm,-,N/A,,Clear,0,2013-02-27 05:53:00
10:53 PM,27.0,18.0,69,30.35,10.0,Calm,Calm,-,N/A,,Clear,0,2013-02-27 06:53:00